Terminal Aerodrome Forecast
Issued by NWS Bismarck, ND

Home | Current Version | Previous Version | Graphics & Text | Print | Product List | Glossary On
Versions: 1 2 3 4 5 6 7 8 9 10 11 12 13 14 15
000
FTUS43 KBIS 040500
TAFBIS
TAF
KBIS 040520Z 0406/0506 32011KT P6SM SCT035
     FM040700 31014KT P6SM -SN OVC025
     FM041400 31015G20KT P6SM FEW250=

USA.gov is the U.S. government's official web portal to all federal, state and local government web resources and services.